Year,Month,Day,Hour,Minute,Value (Times are PST for temperature in C)
2015,07,06,00,00,23.10
2015,07,06,00,01,23.20
2015,07,06,00,02,23.20
2015,07,06,00,03,23.30
2015,07,06,00,04,23.40
2015,07,06,00,05,23.50
2015,07,06,00,06,23.60
2015,07,06,00,07,23.70
2015,07,06,00,08,23.80
2015,07,06,00,09,23.80
2015,07,06,00,10,23.70
2015,07,06,00,11,23.70
2015,07,06,00,12,23.70
2015,07,06,00,13,23.70
2015,07,06,00,14,23.70
2015,07,06,00,15,23.60
2015,07,06,00,16,23.50
2015,07,06,00,17,23.40
2015,07,06,00,18,23.30
2015,07,06,00,19,23.20
2015,07,06,00,20,23.10
2015,07,06,00,21,22.90
2015,07,06,00,22,22.80
2015,07,06,00,23,22.70
2015,07,06,00,24,22.70
2015,07,06,00,25,22.60
2015,07,06,00,26,22.60
2015,07,06,00,27,22.60
2015,07,06,00,28,22.60
2015,07,06,00,29,22.60
2015,07,06,00,30,22.60
2015,07,06,00,31,22.60
2015,07,06,00,32,22.60
2015,07,06,00,33,22.50
2015,07,06,00,34,22.50
2015,07,06,00,35,22.50
2015,07,06,00,36,22.40
2015,07,06,00,37,22.40
2015,07,06,00,38,22.40
2015,07,06,00,39,22.40
2015,07,06,00,40,22.40
2015,07,06,00,41,22.30
2015,07,06,00,42,22.30
2015,07,06,00,43,22.40
2015,07,06,00,44,22.40
2015,07,06,00,45,22.40
2015,07,06,00,46,22.40
2015,07,06,00,47,22.40
2015,07,06,00,48,22.40
2015,07,06,00,49,22.50
2015,07,06,00,50,22.60
2015,07,06,00,51,22.60
2015,07,06,00,52,22.60
2015,07,06,00,53,22.60
2015,07,06,00,54,22.70
2015,07,06,00,55,22.70
2015,07,06,00,56,22.70
2015,07,06,00,57,22.70
2015,07,06,00,58,22.70
2015,07,06,00,59,22.70
2015,07,06,01,00,22.70
2015,07,06,01,01,22.60
2015,07,06,01,02,22.60
2015,07,06,01,03,22.60
2015,07,06,01,04,22.60
2015,07,06,01,05,22.60
2015,07,06,01,06,22.60
2015,07,06,01,07,22.60
2015,07,06,01,08,22.60
2015,07,06,01,09,22.60
2015,07,06,01,10,22.60
2015,07,06,01,11,22.50
2015,07,06,01,12,22.50
2015,07,06,01,13,22.40
2015,07,06,01,14,22.40
2015,07,06,01,15,22.40
2015,07,06,01,16,22.40
2015,07,06,01,17,22.30
2015,07,06,01,18,22.30
2015,07,06,01,19,22.40
2015,07,06,01,20,22.40
2015,07,06,01,21,22.30
2015,07,06,01,22,22.30
2015,07,06,01,23,22.30
2015,07,06,01,24,22.30
2015,07,06,01,25,22.30
2015,07,06,01,26,22.40
2015,07,06,01,27,22.40
2015,07,06,01,28,22.30
2015,07,06,01,29,22.30
2015,07,06,01,30,22.20
2015,07,06,01,31,22.20
2015,07,06,01,32,22.20
2015,07,06,01,33,22.10
2015,07,06,01,34,22.20
2015,07,06,01,35,22.20
2015,07,06,01,36,22.30
2015,07,06,01,37,22.30
2015,07,06,01,38,22.40
2015,07,06,01,39,22.40
2015,07,06,01,40,22.50
2015,07,06,01,41,22.60
2015,07,06,01,42,22.60
2015,07,06,01,43,22.70
2015,07,06,01,44,22.70
2015,07,06,01,45,22.80
2015,07,06,01,46,22.90
2015,07,06,01,47,22.90
2015,07,06,01,48,22.90
2015,07,06,01,49,22.80
2015,07,06,01,50,22.80
2015,07,06,01,51,22.70
2015,07,06,01,52,22.70
2015,07,06,01,53,22.70
2015,07,06,01,54,22.70
2015,07,06,01,55,22.70
2015,07,06,01,56,22.70
2015,07,06,01,57,22.70
2015,07,06,01,58,22.80
2015,07,06,01,59,22.80
2015,07,06,02,00,22.90
2015,07,06,02,01,22.90
2015,07,06,02,02,22.90
2015,07,06,02,03,22.90
2015,07,06,02,04,22.90
2015,07,06,02,05,22.90
2015,07,06,02,06,22.90
2015,07,06,02,07,23.00
2015,07,06,02,08,23.00
2015,07,06,02,09,23.00
2015,07,06,02,10,23.10
2015,07,06,02,11,23.10
2015,07,06,02,12,23.10
2015,07,06,02,13,23.20
2015,07,06,02,14,23.20
2015,07,06,02,15,23.30
2015,07,06,02,16,23.30
2015,07,06,02,17,23.20
2015,07,06,02,18,23.20
2015,07,06,02,19,23.20
2015,07,06,02,20,23.10
2015,07,06,02,21,23.00
2015,07,06,02,22,22.90
2015,07,06,02,23,22.80
2015,07,06,02,24,22.70
2015,07,06,02,25,22.70
2015,07,06,02,26,22.60
2015,07,06,02,27,22.50
2015,07,06,02,28,22.50
2015,07,06,02,29,22.40
2015,07,06,02,30,22.40
2015,07,06,02,31,22.40
2015,07,06,02,32,22.40
2015,07,06,02,33,22.40
2015,07,06,02,34,22.30
2015,07,06,02,35,22.20
2015,07,06,02,36,22.10
2015,07,06,02,37,22.00
2015,07,06,02,38,22.00
2015,07,06,02,39,21.80
2015,07,06,02,40,21.80
2015,07,06,02,41,21.70
2015,07,06,02,42,21.70
2015,07,06,02,43,21.60
2015,07,06,02,44,21.50
2015,07,06,02,45,21.50
2015,07,06,02,46,21.40
2015,07,06,02,47,21.40
2015,07,06,02,48,21.30
2015,07,06,02,49,21.30
2015,07,06,02,50,21.30
2015,07,06,02,51,21.20
2015,07,06,02,52,21.20
2015,07,06,02,53,21.10
2015,07,06,02,54,21.00
2015,07,06,02,55,21.00
2015,07,06,02,56,20.90
2015,07,06,02,57,20.80
2015,07,06,02,58,20.80
2015,07,06,02,59,20.80
2015,07,06,03,00,20.80
2015,07,06,03,01,20.80
2015,07,06,03,02,20.90
2015,07,06,03,03,20.90
2015,07,06,03,04,20.90
2015,07,06,03,05,20.90
2015,07,06,03,06,20.80
2015,07,06,03,07,20.80
2015,07,06,03,08,20.70
2015,07,06,03,09,20.60
2015,07,06,03,10,20.60
2015,07,06,03,11,20.60
2015,07,06,03,12,20.50
2015,07,06,03,13,20.40
2015,07,06,03,14,20.40
2015,07,06,03,15,20.40
2015,07,06,03,16,20.40
2015,07,06,03,17,20.40
2015,07,06,03,18,20.40
2015,07,06,03,19,20.30
2015,07,06,03,20,20.30
2015,07,06,03,21,20.20
2015,07,06,03,22,20.20
2015,07,06,03,23,20.20
2015,07,06,03,24,20.10
2015,07,06,03,25,20.10
2015,07,06,03,26,20.10
2015,07,06,03,27,20.00
2015,07,06,03,28,20.00
2015,07,06,03,29,20.00
2015,07,06,03,30,19.90
2015,07,06,03,31,19.90
2015,07,06,03,32,19.90
2015,07,06,03,33,20.00
2015,07,06,03,34,20.00
2015,07,06,03,35,20.10
2015,07,06,03,36,20.10
2015,07,06,03,37,20.10
2015,07,06,03,38,20.10
2015,07,06,03,39,20.10
2015,07,06,03,40,20.00
2015,07,06,03,41,20.00
2015,07,06,03,42,20.10
2015,07,06,03,43,20.10
2015,07,06,03,44,20.10
2015,07,06,03,45,20.10
2015,07,06,03,46,20.10
2015,07,06,03,47,20.20
2015,07,06,03,48,20.20
2015,07,06,03,49,20.20
2015,07,06,03,50,20.30
2015,07,06,03,51,20.30
2015,07,06,03,52,20.30
2015,07,06,03,53,20.30
2015,07,06,03,54,20.30
2015,07,06,03,55,20.40
2015,07,06,03,56,20.40
2015,07,06,03,57,20.50
2015,07,06,03,58,20.60
2015,07,06,03,59,20.70
2015,07,06,04,00,20.70
2015,07,06,04,01,20.80
2015,07,06,04,02,20.90
2015,07,06,04,03,21.00
2015,07,06,04,04,21.10
2015,07,06,04,05,21.10
2015,07,06,04,06,21.10
2015,07,06,04,07,21.10
2015,07,06,04,08,21.10
2015,07,06,04,09,21.10
2015,07,06,04,10,21.10
2015,07,06,04,11,21.10
2015,07,06,04,12,21.10
2015,07,06,04,13,21.10
2015,07,06,04,14,21.20
2015,07,06,04,15,21.20
2015,07,06,04,16,21.20
2015,07,06,04,17,21.20
2015,07,06,04,18,21.30
2015,07,06,04,19,21.30
2015,07,06,04,20,21.20
2015,07,06,04,21,21.20
2015,07,06,04,22,21.20
2015,07,06,04,23,21.20
2015,07,06,04,24,21.20
2015,07,06,04,25,21.10
2015,07,06,04,26,21.00
2015,07,06,04,27,21.00
2015,07,06,04,28,20.90
2015,07,06,04,29,20.80
2015,07,06,04,30,20.80
2015,07,06,04,31,20.70
2015,07,06,04,32,20.50
2015,07,06,04,33,20.50
2015,07,06,04,34,20.60
2015,07,06,04,35,20.60
2015,07,06,04,36,20.60
2015,07,06,04,37,20.60
2015,07,06,04,38,20.60
2015,07,06,04,39,20.50
2015,07,06,04,40,20.50
2015,07,06,04,41,20.40
2015,07,06,04,42,20.40
2015,07,06,04,43,20.40
2015,07,06,04,44,20.30
2015,07,06,04,45,20.20
2015,07,06,04,46,20.20
2015,07,06,04,47,20.10
2015,07,06,04,48,20.10
2015,07,06,04,49,20.00
2015,07,06,04,50,20.00
2015,07,06,04,51,20.00
2015,07,06,04,52,20.00
2015,07,06,04,53,20.00
2015,07,06,04,54,20.00
2015,07,06,04,55,20.00
2015,07,06,04,56,20.00
2015,07,06,04,57,20.00
2015,07,06,04,58,20.00
2015,07,06,04,59,20.00
2015,07,06,05,00,20.00
2015,07,06,05,01,20.00
2015,07,06,05,02,20.00
2015,07,06,05,03,20.10
2015,07,06,05,04,20.10
2015,07,06,05,05,20.10
2015,07,06,05,06,20.10
2015,07,06,05,07,20.10
2015,07,06,05,08,20.00
2015,07,06,05,09,19.90
2015,07,06,05,10,19.80
2015,07,06,05,11,19.80
2015,07,06,05,12,19.90
2015,07,06,05,13,19.90
2015,07,06,05,14,19.90
2015,07,06,05,15,19.90
2015,07,06,05,16,19.90
2015,07,06,05,17,19.90
2015,07,06,05,18,19.80
2015,07,06,05,19,19.80
2015,07,06,05,20,19.80
2015,07,06,05,21,19.80
2015,07,06,05,22,19.80
2015,07,06,05,23,19.80
2015,07,06,05,24,19.90
2015,07,06,05,25,19.80
2015,07,06,05,26,19.80
2015,07,06,05,27,19.80
2015,07,06,05,28,19.80
2015,07,06,05,29,19.70
2015,07,06,05,30,19.70
2015,07,06,05,31,19.70
2015,07,06,05,32,19.70
2015,07,06,05,33,19.70
2015,07,06,05,34,19.70
2015,07,06,05,35,19.80
2015,07,06,05,36,19.90
2015,07,06,05,37,20.00
2015,07,06,05,38,20.10
2015,07,06,05,39,20.10
2015,07,06,05,40,20.10
2015,07,06,05,41,20.10
2015,07,06,05,42,20.20
2015,07,06,05,43,20.20
2015,07,06,05,44,20.20
2015,07,06,05,45,20.20
2015,07,06,05,46,20.20
2015,07,06,05,47,20.30
2015,07,06,05,48,20.30
2015,07,06,05,49,20.30
2015,07,06,05,50,20.30
2015,07,06,05,51,20.30
2015,07,06,05,52,20.30
2015,07,06,05,53,20.30
2015,07,06,05,54,20.30
2015,07,06,05,55,20.30
2015,07,06,05,56,20.30
2015,07,06,05,57,20.30
2015,07,06,05,58,20.30
2015,07,06,05,59,20.30
2015,07,06,06,00,20.30
2015,07,06,06,01,20.30
2015,07,06,06,02,20.30
2015,07,06,06,03,20.20
2015,07,06,06,04,20.10
2015,07,06,06,05,20.00
2015,07,06,06,06,19.90
2015,07,06,06,07,19.80
2015,07,06,06,08,19.80
2015,07,06,06,09,19.70
2015,07,06,06,10,19.70
2015,07,06,06,11,19.60
2015,07,06,06,12,19.50
2015,07,06,06,13,19.40
2015,07,06,06,14,19.40
2015,07,06,06,15,19.30
2015,07,06,06,16,19.30
2015,07,06,06,17,19.30
2015,07,06,06,18,19.40
2015,07,06,06,19,19.50
2015,07,06,06,20,19.50
2015,07,06,06,21,19.60
2015,07,06,06,22,19.50
2015,07,06,06,23,19.50
2015,07,06,06,24,19.50
2015,07,06,06,25,19.40
2015,07,06,06,26,19.40
2015,07,06,06,27,19.40
2015,07,06,06,28,19.40
2015,07,06,06,29,19.40
2015,07,06,06,30,19.50
2015,07,06,06,31,19.50
2015,07,06,06,32,19.50
2015,07,06,06,33,19.50
2015,07,06,06,34,19.50
2015,07,06,06,35,19.50
2015,07,06,06,36,19.50
2015,07,06,06,37,19.40
2015,07,06,06,38,19.40
2015,07,06,06,39,19.40
2015,07,06,06,40,19.40
2015,07,06,06,41,19.40
2015,07,06,06,42,19.40
2015,07,06,06,43,19.40
2015,07,06,06,44,19.40
2015,07,06,06,45,19.40
2015,07,06,06,46,19.40
2015,07,06,06,47,19.40
2015,07,06,06,48,19.40
2015,07,06,06,49,19.40
2015,07,06,06,50,19.40
2015,07,06,06,51,19.40
2015,07,06,06,52,19.40
2015,07,06,06,53,19.40
2015,07,06,06,54,19.30
2015,07,06,06,55,19.40
2015,07,06,06,56,19.30
2015,07,06,06,57,19.30
2015,07,06,06,58,19.30
2015,07,06,06,59,19.20
2015,07,06,07,00,19.20
2015,07,06,07,01,19.20
2015,07,06,07,02,19.10
2015,07,06,07,03,19.00
2015,07,06,07,04,19.00
2015,07,06,07,05,18.90
2015,07,06,07,06,18.80
2015,07,06,07,07,18.70
2015,07,06,07,08,18.70
2015,07,06,07,09,18.60
2015,07,06,07,10,18.60
2015,07,06,07,11,18.50
2015,07,06,07,12,18.50
2015,07,06,07,13,18.50
2015,07,06,07,14,18.60
2015,07,06,07,15,18.60
2015,07,06,07,16,18.70
2015,07,06,07,17,18.70
2015,07,06,07,18,18.80
2015,07,06,07,19,19.00
2015,07,06,07,20,19.10
2015,07,06,07,21,19.20
2015,07,06,07,22,19.30
2015,07,06,07,23,19.40
2015,07,06,07,24,19.40
2015,07,06,07,25,19.50
2015,07,06,07,26,19.50
2015,07,06,07,27,19.60
2015,07,06,07,28,19.60
2015,07,06,07,29,19.60
2015,07,06,07,30,19.70
2015,07,06,07,31,19.70
2015,07,06,07,32,19.70
2015,07,06,07,33,19.80
2015,07,06,07,34,19.80
2015,07,06,07,35,19.90
2015,07,06,07,36,19.90
2015,07,06,07,37,19.90
2015,07,06,07,38,19.90
2015,07,06,07,39,19.90
2015,07,06,07,40,20.00
2015,07,06,07,41,20.00
2015,07,06,07,42,20.00
2015,07,06,07,43,20.00
2015,07,06,07,44,20.10
2015,07,06,07,45,20.10
2015,07,06,07,46,20.10
2015,07,06,07,47,20.10
2015,07,06,07,48,20.20
2015,07,06,07,49,20.20
2015,07,06,07,50,20.20
2015,07,06,07,51,20.20
2015,07,06,07,52,20.20
2015,07,06,07,53,20.20
2015,07,06,07,54,20.20
2015,07,06,07,55,20.20
2015,07,06,07,56,20.20
2015,07,06,07,57,20.20
2015,07,06,07,58,20.20
2015,07,06,07,59,20.20
2015,07,06,08,00,20.10
2015,07,06,08,01,20.10
2015,07,06,08,02,20.10
2015,07,06,08,03,20.10
2015,07,06,08,04,20.10
2015,07,06,08,05,20.10
2015,07,06,08,06,20.10
2015,07,06,08,07,20.20
2015,07,06,08,08,20.10
2015,07,06,08,09,20.10
2015,07,06,08,10,20.10
2015,07,06,08,11,20.20
2015,07,06,08,12,20.20
2015,07,06,08,13,20.20
2015,07,06,08,14,20.20
2015,07,06,08,15,20.30
2015,07,06,08,16,20.30
2015,07,06,08,17,20.30
2015,07,06,08,18,20.40
2015,07,06,08,19,20.40
2015,07,06,08,20,20.40
2015,07,06,08,21,20.40
2015,07,06,08,22,20.50
2015,07,06,08,23,20.50
2015,07,06,08,24,20.50
2015,07,06,08,25,20.60
2015,07,06,08,26,20.60
2015,07,06,08,27,20.60
2015,07,06,08,28,20.70
2015,07,06,08,29,20.70
2015,07,06,08,30,20.70
2015,07,06,08,31,20.80
2015,07,06,08,32,20.80
2015,07,06,08,33,20.90
2015,07,06,08,34,20.90
2015,07,06,08,35,21.00
2015,07,06,08,36,21.10
2015,07,06,08,37,21.20
2015,07,06,08,38,21.20
2015,07,06,08,39,21.30
2015,07,06,08,40,21.30
2015,07,06,08,41,21.40
2015,07,06,08,42,21.50
2015,07,06,08,43,21.50
2015,07,06,08,44,21.60
2015,07,06,08,45,21.70
2015,07,06,08,46,21.80
2015,07,06,08,47,21.80
2015,07,06,08,48,21.80
2015,07,06,08,49,21.90
2015,07,06,08,50,22.00
2015,07,06,08,51,22.10
2015,07,06,08,52,22.10
2015,07,06,08,53,22.20
2015,07,06,08,54,22.20
2015,07,06,08,55,22.20
2015,07,06,08,56,22.20
2015,07,06,08,57,22.20
2015,07,06,08,58,22.20
2015,07,06,08,59,22.20
2015,07,06,09,00,22.30
2015,07,06,09,01,22.30
2015,07,06,09,02,22.30
2015,07,06,09,03,22.20
2015,07,06,09,04,22.30
2015,07,06,09,05,22.30
2015,07,06,09,06,22.30
2015,07,06,09,07,22.30
2015,07,06,09,08,22.30
2015,07,06,09,09,22.30
2015,07,06,09,10,22.30
2015,07,06,09,11,22.10
2015,07,06,09,12,22.00
2015,07,06,09,13,21.90
2015,07,06,09,14,21.90
2015,07,06,09,15,21.80
2015,07,06,09,16,21.80
2015,07,06,09,17,21.80
2015,07,06,09,18,21.70
2015,07,06,09,19,21.70
2015,07,06,09,20,21.60
2015,07,06,09,21,21.60
2015,07,06,09,22,21.60
2015,07,06,09,23,21.60
2015,07,06,09,24,21.50
2015,07,06,09,25,21.50
2015,07,06,09,26,21.50
2015,07,06,09,27,21.40
2015,07,06,09,28,21.40
2015,07,06,09,29,21.40
2015,07,06,09,30,21.40
2015,07,06,09,31,21.40
2015,07,06,09,32,21.40
2015,07,06,09,33,21.40
2015,07,06,09,34,21.40
2015,07,06,09,35,21.50
2015,07,06,09,36,21.60
2015,07,06,09,37,21.60
2015,07,06,09,38,21.60
2015,07,06,09,39,21.50
2015,07,06,09,40,21.40
2015,07,06,09,41,21.10
2015,07,06,09,42,21.00
2015,07,06,09,43,20.90
2015,07,06,09,44,20.70
2015,07,06,09,45,20.60
2015,07,06,09,46,20.50
2015,07,06,09,47,20.40
2015,07,06,09,48,20.30
2015,07,06,09,49,20.30
2015,07,06,09,50,20.40
2015,07,06,09,51,20.50
2015,07,06,09,52,20.50
2015,07,06,09,53,20.60
2015,07,06,09,54,20.70
2015,07,06,09,55,20.70
2015,07,06,09,56,20.80
2015,07,06,09,57,20.80
2015,07,06,09,58,20.80
2015,07,06,09,59,20.80
2015,07,06,10,00,20.80
2015,07,06,10,01,20.80
2015,07,06,10,02,20.70
2015,07,06,10,03,20.70
2015,07,06,10,04,20.70
2015,07,06,10,05,20.60
2015,07,06,10,06,20.60
2015,07,06,10,07,20.60
2015,07,06,10,08,20.60
2015,07,06,10,09,20.60
2015,07,06,10,10,20.60
2015,07,06,10,11,20.60
2015,07,06,10,12,20.50
2015,07,06,10,13,20.50
2015,07,06,10,14,20.40
2015,07,06,10,15,20.30
2015,07,06,10,16,20.20
2015,07,06,10,17,20.20
2015,07,06,10,18,20.20
2015,07,06,10,19,20.20
2015,07,06,10,20,20.00
2015,07,06,10,21,19.90
2015,07,06,10,22,19.80
2015,07,06,10,23,19.80
2015,07,06,10,24,19.70
2015,07,06,10,25,19.70
2015,07,06,10,26,19.80
2015,07,06,10,27,19.80
2015,07,06,10,28,19.80
2015,07,06,10,29,19.80
2015,07,06,10,30,19.80
2015,07,06,10,31,19.80
2015,07,06,10,32,19.80
2015,07,06,10,33,19.80
2015,07,06,10,34,19.80
2015,07,06,10,35,19.80
2015,07,06,10,36,19.90
2015,07,06,10,37,19.90
2015,07,06,10,38,19.90
2015,07,06,10,39,19.90
2015,07,06,10,40,20.00
2015,07,06,10,41,20.00
2015,07,06,10,42,20.00
2015,07,06,10,43,20.00
2015,07,06,10,44,20.00
2015,07,06,10,45,20.00
2015,07,06,10,46,19.90
2015,07,06,10,47,19.90
2015,07,06,10,48,19.80
2015,07,06,10,49,19.80
2015,07,06,10,50,19.80
2015,07,06,10,51,19.90
2015,07,06,10,52,19.90
2015,07,06,10,53,19.90
2015,07,06,10,54,19.90
2015,07,06,10,55,19.90
2015,07,06,10,56,20.00
2015,07,06,10,57,19.90
2015,07,06,10,58,19.90
2015,07,06,10,59,19.90
2015,07,06,11,00,19.90
2015,07,06,11,01,19.90
2015,07,06,11,02,19.90
2015,07,06,11,03,19.90
2015,07,06,11,04,19.90
2015,07,06,11,05,19.90
2015,07,06,11,06,20.00
2015,07,06,11,07,20.10
2015,07,06,11,08,20.20
2015,07,06,11,09,20.20
2015,07,06,11,10,20.20
2015,07,06,11,11,20.20
2015,07,06,11,12,20.20
2015,07,06,11,13,20.20
2015,07,06,11,14,20.30
2015,07,06,11,15,20.30
2015,07,06,11,16,20.30
2015,07,06,11,17,20.30
2015,07,06,11,18,20.40
2015,07,06,11,19,20.40
2015,07,06,11,20,20.40
2015,07,06,11,21,20.50
2015,07,06,11,22,20.50
2015,07,06,11,23,20.60
2015,07,06,11,24,20.70
2015,07,06,11,25,20.80
2015,07,06,11,26,20.90
2015,07,06,11,27,20.90
2015,07,06,11,28,20.90
2015,07,06,11,29,20.90
2015,07,06,11,30,20.80
2015,07,06,11,31,20.80
2015,07,06,11,32,20.80
2015,07,06,11,33,20.80
2015,07,06,11,34,20.80
2015,07,06,11,35,20.80
2015,07,06,11,36,20.80
2015,07,06,11,37,20.90
2015,07,06,11,38,21.00
2015,07,06,11,39,21.10
2015,07,06,11,40,21.30
2015,07,06,11,41,21.30
2015,07,06,11,42,21.30
2015,07,06,11,43,21.30
2015,07,06,11,44,21.20
2015,07,06,11,45,21.10
2015,07,06,11,46,21.10
2015,07,06,11,47,21.10
2015,07,06,11,48,21.10
2015,07,06,11,49,21.20
2015,07,06,11,50,21.30
2015,07,06,11,51,21.40
2015,07,06,11,52,21.60
2015,07,06,11,53,21.70
2015,07,06,11,54,21.80
2015,07,06,11,55,22.00
2015,07,06,11,56,22.10
2015,07,06,11,57,22.10
2015,07,06,11,58,22.30
2015,07,06,11,59,22.30
2015,07,06,12,00,22.40
2015,07,06,12,01,22.40
2015,07,06,12,02,22.40
2015,07,06,12,03,22.40
2015,07,06,12,04,22.50
2015,07,06,12,05,22.50
2015,07,06,12,06,22.40
2015,07,06,12,07,22.40
2015,07,06,12,08,22.40
2015,07,06,12,09,22.40
2015,07,06,12,10,22.40
2015,07,06,12,11,22.40
2015,07,06,12,12,22.40
2015,07,06,12,13,22.40
2015,07,06,12,14,22.40
2015,07,06,12,15,22.40
2015,07,06,12,16,22.50
2015,07,06,12,17,22.60
2015,07,06,12,18,22.50
2015,07,06,12,19,22.50
2015,07,06,12,20,22.40
2015,07,06,12,21,22.40
2015,07,06,12,22,22.30
2015,07,06,12,23,22.20
2015,07,06,12,24,22.20
2015,07,06,12,25,22.20
2015,07,06,12,26,22.20
2015,07,06,12,27,22.20
2015,07,06,12,28,22.30
2015,07,06,12,29,22.30
2015,07,06,12,30,22.30
2015,07,06,12,31,22.30
2015,07,06,12,32,22.30
2015,07,06,12,33,22.40
2015,07,06,12,34,22.50
2015,07,06,12,35,22.60
2015,07,06,12,36,22.70
2015,07,06,12,37,22.80
2015,07,06,12,38,22.90
2015,07,06,12,39,23.00
2015,07,06,12,40,23.00
2015,07,06,12,41,23.00
2015,07,06,12,42,23.00
2015,07,06,12,43,23.10
2015,07,06,12,44,23.20
2015,07,06,12,45,23.20
2015,07,06,12,46,23.30
2015,07,06,12,47,23.40
2015,07,06,12,48,23.50
2015,07,06,12,49,23.50
2015,07,06,12,50,23.70
2015,07,06,12,51,23.80
2015,07,06,12,52,23.90
2015,07,06,12,53,24.00
2015,07,06,12,54,24.20
2015,07,06,12,55,24.20
2015,07,06,12,56,24.20
2015,07,06,12,57,24.20
2015,07,06,12,58,24.30
2015,07,06,12,59,24.30
2015,07,06,13,00,24.20
2015,07,06,13,01,23.90
2015,07,06,13,02,23.70
2015,07,06,13,03,23.50
2015,07,06,13,04,23.30
2015,07,06,13,05,23.20
2015,07,06,13,06,23.00
2015,07,06,13,07,23.00
2015,07,06,13,08,22.90
2015,07,06,13,09,22.80
2015,07,06,13,10,22.80
2015,07,06,13,11,22.70
2015,07,06,13,12,22.70
2015,07,06,13,13,22.70
2015,07,06,13,14,22.50
2015,07,06,13,15,22.30
2015,07,06,13,16,22.10
2015,07,06,13,17,22.00
2015,07,06,13,18,21.90
2015,07,06,13,19,21.90
2015,07,06,13,20,21.90
2015,07,06,13,21,21.80
2015,07,06,13,22,21.80
2015,07,06,13,23,21.80
2015,07,06,13,24,21.80
2015,07,06,13,25,21.80
2015,07,06,13,26,21.80
2015,07,06,13,27,21.90
2015,07,06,13,28,21.90
2015,07,06,13,29,22.00
2015,07,06,13,30,22.00
2015,07,06,13,31,22.10
2015,07,06,13,32,22.20
2015,07,06,13,33,22.20
2015,07,06,13,34,22.20
2015,07,06,13,35,22.30
2015,07,06,13,36,22.30
2015,07,06,13,37,22.30
2015,07,06,13,38,22.30
2015,07,06,13,39,22.30
2015,07,06,13,40,22.20
2015,07,06,13,41,22.30
2015,07,06,13,42,22.30
2015,07,06,13,43,22.30
2015,07,06,13,44,22.30
2015,07,06,13,45,22.30
2015,07,06,13,46,22.30
2015,07,06,13,47,22.30
2015,07,06,13,48,22.30
2015,07,06,13,49,22.30
2015,07,06,13,50,22.30
2015,07,06,13,51,22.30
2015,07,06,13,52,22.30
2015,07,06,13,53,22.30
2015,07,06,13,54,22.40
2015,07,06,13,55,22.40
2015,07,06,13,56,22.40
2015,07,06,13,57,22.40
2015,07,06,13,58,22.40
2015,07,06,13,59,22.40
2015,07,06,14,00,22.50
2015,07,06,14,01,22.50
2015,07,06,14,02,22.60
2015,07,06,14,03,22.70
2015,07,06,14,04,22.80
2015,07,06,14,05,23.00
2015,07,06,14,06,23.10
2015,07,06,14,07,23.20
2015,07,06,14,08,23.30
2015,07,06,14,09,23.30
2015,07,06,14,10,23.30
2015,07,06,14,11,23.30
2015,07,06,14,12,23.40
2015,07,06,14,13,23.40
2015,07,06,14,14,23.40
2015,07,06,14,15,23.40
2015,07,06,14,16,23.40
2015,07,06,14,17,23.50
2015,07,06,14,18,23.50
2015,07,06,14,19,23.50
2015,07,06,14,20,23.40
2015,07,06,14,21,23.50
2015,07,06,14,22,23.50
2015,07,06,14,23,23.40
2015,07,06,14,24,23.40
2015,07,06,14,25,23.40
2015,07,06,14,26,23.50
2015,07,06,14,27,23.50
2015,07,06,14,28,23.50
2015,07,06,14,29,23.60
2015,07,06,14,30,23.70
2015,07,06,14,31,23.80
2015,07,06,14,32,23.90
2015,07,06,14,33,24.00
2015,07,06,14,34,24.20
2015,07,06,14,35,24.30
2015,07,06,14,36,24.30
2015,07,06,14,37,24.20
2015,07,06,14,38,24.20
2015,07,06,14,39,24.30
2015,07,06,14,40,24.30
2015,07,06,14,41,24.30
2015,07,06,14,42,24.30
2015,07,06,14,43,24.30
2015,07,06,14,44,24.30
2015,07,06,14,45,24.20
2015,07,06,14,46,24.30
2015,07,06,14,47,24.30
2015,07,06,14,48,24.30
2015,07,06,14,49,24.30
2015,07,06,14,50,24.30
2015,07,06,14,51,24.30
2015,07,06,14,52,24.30
2015,07,06,14,53,24.30
2015,07,06,14,54,24.30
2015,07,06,14,55,24.30
2015,07,06,14,56,24.40
2015,07,06,14,57,24.40
2015,07,06,14,58,24.30
2015,07,06,14,59,24.40
2015,07,06,15,00,24.40
2015,07,06,15,01,24.50
2015,07,06,15,02,24.60
2015,07,06,15,03,24.70
2015,07,06,15,04,24.60
2015,07,06,15,05,24.60
2015,07,06,15,06,24.60
2015,07,06,15,07,24.50
2015,07,06,15,08,24.50
2015,07,06,15,09,24.40
2015,07,06,15,10,24.40
2015,07,06,15,11,24.30
2015,07,06,15,12,24.30
2015,07,06,15,13,24.20
2015,07,06,15,14,24.20
2015,07,06,15,15,24.10
2015,07,06,15,16,24.10
2015,07,06,15,17,24.10
2015,07,06,15,18,24.10
2015,07,06,15,19,24.10
2015,07,06,15,20,24.10
2015,07,06,15,21,24.10
2015,07,06,15,22,24.10
2015,07,06,15,23,24.00
2015,07,06,15,24,24.00
2015,07,06,15,25,24.00
2015,07,06,15,26,23.90
2015,07,06,15,27,23.90
2015,07,06,15,28,23.90
2015,07,06,15,29,23.90
2015,07,06,15,30,23.90
2015,07,06,15,31,24.00
2015,07,06,15,32,24.00
2015,07,06,15,33,24.00
2015,07,06,15,34,23.90
2015,07,06,15,35,23.90
2015,07,06,15,36,23.90
2015,07,06,15,37,23.90
2015,07,06,15,38,23.80
2015,07,06,15,39,23.80
2015,07,06,15,40,23.70
2015,07,06,15,41,23.60
2015,07,06,15,42,23.60
2015,07,06,15,43,23.60
2015,07,06,15,44,23.70
2015,07,06,15,45,23.70
2015,07,06,15,46,23.80
2015,07,06,15,47,23.80
2015,07,06,15,48,23.90
2015,07,06,15,49,23.90
2015,07,06,15,50,23.90
2015,07,06,15,51,24.00
2015,07,06,15,52,24.00
2015,07,06,15,53,24.10
2015,07,06,15,54,24.10
2015,07,06,15,55,24.20
2015,07,06,15,56,24.20
2015,07,06,15,57,24.20
2015,07,06,15,58,24.30
2015,07,06,15,59,24.40
2015,07,06,16,00,24.50
2015,07,06,16,01,24.50
2015,07,06,16,02,24.70
2015,07,06,16,03,24.80
2015,07,06,16,04,24.80
2015,07,06,16,05,24.80
2015,07,06,16,06,24.90
2015,07,06,16,07,25.00
2015,07,06,16,08,25.10
2015,07,06,16,09,25.20
2015,07,06,16,10,25.20
2015,07,06,16,11,25.30
2015,07,06,16,12,25.30
2015,07,06,16,13,25.40
2015,07,06,16,14,25.40
2015,07,06,16,15,25.40
2015,07,06,16,16,25.30
2015,07,06,16,17,25.20
2015,07,06,16,18,25.10
2015,07,06,16,19,25.10
2015,07,06,16,20,25.10
2015,07,06,16,21,25.20
2015,07,06,16,22,25.30
2015,07,06,16,23,25.30
2015,07,06,16,24,25.30
2015,07,06,16,25,25.30
2015,07,06,16,26,25.40
2015,07,06,16,27,25.40
2015,07,06,16,28,25.40
2015,07,06,16,29,25.40
2015,07,06,16,30,25.50
2015,07,06,16,31,25.60
2015,07,06,16,32,25.60
2015,07,06,16,33,25.70
2015,07,06,16,34,25.90
2015,07,06,16,35,26.00
2015,07,06,16,36,26.10
2015,07,06,16,37,26.20
2015,07,06,16,38,26.20
2015,07,06,16,39,26.30
2015,07,06,16,40,26.40
2015,07,06,16,41,26.50
2015,07,06,16,42,26.60
2015,07,06,16,43,26.70
2015,07,06,16,44,26.80
2015,07,06,16,45,26.80
2015,07,06,16,46,26.80
2015,07,06,16,47,26.80
2015,07,06,16,48,26.80
2015,07,06,16,49,26.70
2015,07,06,16,50,26.60
2015,07,06,16,51,26.50
2015,07,06,16,52,26.50
2015,07,06,16,53,26.40
2015,07,06,16,54,26.30
2015,07,06,16,55,26.30
2015,07,06,16,56,26.30
2015,07,06,16,57,26.30
2015,07,06,16,58,26.40
2015,07,06,16,59,26.40
2015,07,06,17,00,26.50
2015,07,06,17,01,26.50
2015,07,06,17,02,26.40
2015,07,06,17,03,26.40
2015,07,06,17,04,26.50
2015,07,06,17,05,26.50
2015,07,06,17,06,26.60
2015,07,06,17,07,26.70
2015,07,06,17,08,26.90
2015,07,06,17,09,27.00
2015,07,06,17,10,27.10
2015,07,06,17,11,27.10
2015,07,06,17,12,26.80
2015,07,06,17,13,26.60
2015,07,06,17,14,26.30
2015,07,06,17,15,26.10
2015,07,06,17,16,25.90
2015,07,06,17,17,25.70
2015,07,06,17,18,25.70
2015,07,06,17,19,25.70